Location: New Plymouth
(39.0670°S, 174.0830°E)
Time: 05:51:56
(UTC+12:00)

STRAND 1 - Pass Details

Date: 27 August 2019
Orbit: 768 x 781 km, 98.5° (Epoch: 23 September)

Event Time Altitude Azimuth Distance (km) Brightness Sun altitude
Rises 18:24:50 0° 36° (NE) 3,252 ? -6.3°
Reaches altitude 10° 18:27:16 10° 44° (NE) 2,335 ? -6.7°
Maximum altitude 18:32:00 38° 110° (ESE) 1,183 ? -7.6°
Drops below altitude 10° 18:36:49 10° 177° (S) 2,368 ? -8.6°
Sets 18:39:17 0° 184° (S) 3,305 ? -9.1°
